Skip Page Navigation
NASA JPL Caltech
NASA Logo - Jet Propulsion Laboratory + View the NASA Portal
+ Near-Earth Object (NEO) Project
Search JPL
JPL Home Earth Solar System Stars & Galaxies Technology
JPL Solar System Dynamics
BODIES ORBITS EPHEMERIDES TOOLS PHYSICAL DATA DISCOVERY FAQ SITE MAP
JPL Small-Body Database Browser
Search: [ help ]  
C/2007 W1 (Boattini)
Classification: Hyperbolic Comet          SPK-ID: 1002487
Ephemeris | Orbit Diagram | Orbital Elements | Physical Parameters | Close-Approach Data ]

[ hide orbit diagram ]
Orbit Diagram
Note: Make sure you have Java enabled on your browser to see the applet. This applet is provided as a 3D orbit visualization tool. The applet was implemented using 2-body methods, and hence should not be used for determining accurate long-term trajectories (over several years or decades) or planetary encounter circumstances. For accurate long-term ephemerides, please instead use our Horizons system.
Orbit Viewer

Additional Notes: the orbits shown in the applet are color coded. The planets are white lines, and the asteroid/comet is a blue line. The bright white line indicates the portion of the orbit that is above the ecliptic plane, and the darker portion is below the ecliptic plane. Likewise for the asteroid/comet orbit, the light blue indicates the portion above the ecliptic plane, and the dark blue the portion below the ecliptic plane.

Orbit Viewer applet originally written and kindly provided by Osamu Ajiki (AstroArts), and further modified by Ron Baalke (JPL).


Orbital Elements at Epoch 2454616.5 (2008-May-30.0) TDB
Reference: JPL 58 (heliocentric ecliptic J2000)
 Element Value Uncertainty (1-sigma)   Units 
e 1.000154298422857 4.8527e-06  
a -5507.046025681234 173.21 AU
q .8497285163639641 1.0554e-06 AU
i 9.890345520127294 4.3223e-05 deg
node 334.5313156363434 0.0001333 deg
peri 306.5461460951166 0.00014128 deg
M 359.9999375533253 2.9456e-06 deg
tp 2454642.393055525207
(2008-Jun-24.89305553)
0.00021653 JED
period n/a
n/a
n/a
n/a
d
yr
n 2.411715167252173E-6 1.1378e-07 deg/d
Q n/a n/a AU
  Orbit Determination Parameters
   # obs. used (total)      666  
   data-arc span      285 days  
   first obs. used      2007-11-20  
   last obs. used      2008-08-31  
   planetary ephem.      DE405  
   SB-pert. ephem.      SB405-CPV-2  
   fit RMS      .98733  
   data source      ORB  
   producer      Otto Matic  
   solution date      2009-Feb-11 16:49:51  

Additional Information
 Earth MOID = .017627 AU 
[ show covariance matrix ]

Ephemeris | Orbit Diagram | Orbital Elements | Physical Parameters | Close-Approach Data ]

Physical Parameter Table
Parameter Symbol Value Units Sigma Reference Notes
comet total magnitude M1 10.0 mag 1. 58 from 157 observations, assumed slope, autocmod 2.4a
comet total magnitude slope K1 12.   n/a 58 autocmod 2.4a
comet nuclear magnitude M2 16.9 mag 1. 58 from 914 observations, autocmod 2.4a
comet nuclear magnitude slope K2 5.   n/a 58 autocmod 2.4a
comet nuclear phase coefficient PC 0.03   n/a 58 autocmod 2.4a

[ show close-approach data ]
Ephemeris | Orbit Diagram | Orbital Elements | Physical Parameters | Close-Approach Data ]
ABOUT SSD CREDITS/AWARDS PRIVACY/COPYRIGHT GLOSSARY LINKS
FirstGov 2010-Feb-10 05:54 UT
(server date/time)  
NASA Home Page
Site Manager:   Donald K. Yeomans
Webmaster  Alan B. Chamberlin